When you browse on this site, cookies collect data to enhance your experience and personalize the content and advertising you see.
Visit our Privacy Policy to learn more. By continuing to use the site, you agree to this use of cookies and data.
  • en Suisse
  • Liste des pays
  • À 7 jours
  • Température de l'eau
  • Carte météo
  • Widgets météo
  • user-avatar
    Se connecter

    Météo par heure à Dijon

    Ce jour, 19 Novembre, Mardi

    Heure Température Précipitation Vent Pression Humidité
    00:00 +4°C° 0 mm 1 m/s 736 mmHg 93%
    01:00 +4°C° 0 mm 1 m/s 736 mmHg 94%
    02:00 +4°C° 0 mm 1 m/s 736 mmHg 94%
    03:00 +4°C° 0 mm 1 m/s 736 mmHg 95%
    04:00 +4°C° 0 mm 1 m/s 736 mmHg 94%
    05:00 +4°C° 0 mm 1 m/s 736 mmHg 94%
    06:00 +5°C° 0 mm 1 m/s 736 mmHg 94%
    07:00 +5°C° 0 mm 1 m/s 736 mmHg 91%
    08:00 +4°C° 0 mm 2 m/s 737 mmHg 88%
    09:00 +5°C° 0 mm 2 m/s 737 mmHg 86%
    10:00 +5°C° 0 mm 2 m/s 737 mmHg 82%
    11:00 +6°C° 0 mm 2 m/s 737 mmHg 78%
    12:00 +7°C° 0 mm 3 m/s 737 mmHg 74%
    13:00 +5°C° 0 mm 3 m/s 737 mmHg 75%
    14:00 +6°C° 0 mm 2 m/s 737 mmHg 76%
    15:00 +6°C° 0 mm 2 m/s 737 mmHg 76%
    16:00 +5°C° 0 mm 2 m/s 737 mmHg 80%
    17:00 +4°C° 0 mm 2 m/s 737 mmHg 83%
    18:00 +3°C° 0 mm 2 m/s 737 mmHg 86%
    19:00 +2°C° 0 mm 2 m/s 737 mmHg 87%
    20:00 +1°C° 0 mm 2 m/s 737 mmHg 88%
    21:00 +1°C° 0 mm 2 m/s 737 mmHg 89%
    22:00 -1°C° 0 mm 2 m/s 737 mmHg 90%
    23:00 -1°C° 0 mm 2 m/s 737 mmHg 92%

    Demain, 20 Novembre, Mercredi

    Heure Température Précipitation Vent Pression Humidité
    00:00 -1°C° 0 mm 2 m/s 737 mmHg 93%
    01:00 -1°C° 0 mm 2 m/s 736 mmHg 94%
    02:00 -1°C° 0 mm 2 m/s 736 mmHg 94%
    03:00 -1°C° 0 mm 2 m/s 736 mmHg 95%
    04:00 -2°C° 0 mm 2 m/s 735 mmHg 95%
    05:00 -2°C° 0 mm 2 m/s 735 mmHg 96%
    06:00 -2°C° 0 mm 2 m/s 735 mmHg 96%
    07:00 -1°C° 0 mm 2 m/s 735 mmHg 92%
    08:00 +2°C° 0 mm 1 m/s 735 mmHg 89%
    09:00 +3°C° 0 mm 1 m/s 734 mmHg 86%
    10:00 +5°C° 0 mm 1 m/s 734 mmHg 81%
    11:00 +5°C° 0 mm 2 m/s 734 mmHg 77%
    12:00 +6°C° 0 mm 2 m/s 733 mmHg 73%
    13:00 +6°C° 0 mm 2 m/s 733 mmHg 76%
    14:00 +7°C° 0 mm 1 m/s 733 mmHg 78%
    15:00 +7°C° 0 mm 1 m/s 732 mmHg 81%
    16:00 +5°C° 0 mm 1 m/s 732 mmHg 84%
    17:00 +4°C° 0 mm 1 m/s 732 mmHg 87%
    18:00 +3°C° 0 mm 1 m/s 732 mmHg 90%
    19:00 +3°C° 0 mm 1 m/s 732 mmHg 91%
    20:00 +3°C° 0 mm 1 m/s 733 mmHg 91%
    21:00 +3°C° 0 mm 1 m/s 733 mmHg 92%
    22:00 +3°C° 0 mm 1 m/s 733 mmHg 93%
    23:00 +3°C° 0 mm 1 m/s 732 mmHg 94%

    Après-demain, 21 Novembre, Jeudi

    Heure Température Précipitation Vent Pression Humidité
    00:00 +2°C° 0 mm 1 m/s 732 mmHg 95%
    01:00 +1°C° 0 mm 2 m/s 732 mmHg 96%
    02:00 +1°C° 0 mm 2 m/s 732 mmHg 96%
    03:00 +1°C° 0 mm 2 m/s 732 mmHg 96%
    04:00 +2°C° 0 mm 2 m/s 732 mmHg 95%
    05:00 +2°C° 0 mm 2 m/s 732 mmHg 95%
    06:00 +3°C° 0 mm 1 m/s 732 mmHg 95%
    07:00 +3°C° 0 mm 2 m/s 732 mmHg 92%
    08:00 +4°C° 0 mm 2 m/s 732 mmHg 89%
    09:00 +5°C° 0 mm 2 m/s 732 mmHg 86%
    10:00 +6°C° 0 mm 2 m/s 732 mmHg 82%
    11:00 +7°C° 0 mm 3 m/s 731 mmHg 78%
    12:00 +8°C° 0 mm 4 m/s 731 mmHg 74%
    13:00 +8°C° 0 mm 3 m/s 731 mmHg 75%
    14:00 +8°C° 0 mm 3 m/s 731 mmHg 77%
    15:00 +8°C° 0 mm 3 m/s 731 mmHg 79%
    16:00 +7°C° 0.5 mm 3 m/s 731 mmHg 83%
    17:00 +7°C° 0.5 mm 3 m/s 731 mmHg 88%
    18:00 +5°C° 0.5 mm 3 m/s 731 mmHg 93%
    19:00 +5°C° 0.8 mm 3 m/s 731 mmHg 94%
    20:00 +5°C° 0.8 mm 3 m/s 731 mmHg 95%
    21:00 +5°C° 0.8 mm 4 m/s 732 mmHg 96%
    22:00 +5°C° 0.2 mm 3 m/s 732 mmHg 96%
    23:00 +5°C° 0.2 mm 3 m/s 732 mmHg 96%

    22 Novembre, Vendredi

    Heure Température Précipitation Vent Pression Humidité
    00:00 +5°C° 0.2 mm 3 m/s 732 mmHg 96%
    01:00 +5°C° 0 mm 3 m/s 731 mmHg 96%
    02:00 +5°C° 0 mm 3 m/s 731 mmHg 96%
    03:00 +5°C° 0 mm 3 m/s 731 mmHg 97%
    04:00 +5°C° 0 mm 3 m/s 731 mmHg 97%
    05:00 +5°C° 0 mm 3 m/s 731 mmHg 96%
    06:00 +6°C° 0 mm 2 m/s 731 mmHg 96%
    07:00 +5°C° 0.1 mm 3 m/s 731 mmHg 95%
    08:00 +7°C° 0.1 mm 3 m/s 731 mmHg 94%
    09:00 +7°C° 0.1 mm 3 m/s 730 mmHg 93%
    10:00 +8°C° 0.1 mm 3 m/s 730 mmHg 90%
    11:00 +8°C° 0.1 mm 3 m/s 730 mmHg 87%
    12:00 +9°C° 0.1 mm 3 m/s 729 mmHg 85%
    13:00 +9°C° 0 mm 3 m/s 729 mmHg 85%
    14:00 +9°C° 0 mm 3 m/s 728 mmHg 86%
    15:00 +8°C° 0 mm 3 m/s 728 mmHg 86%
    16:00 +8°C° 0.1 mm 3 m/s 727 mmHg 87%
    17:00 +7°C° 0.1 mm 3 m/s 727 mmHg 87%
    18:00 +7°C° 0.1 mm 3 m/s 727 mmHg 88%
    19:00 +7°C° 0.6 mm 3 m/s 726 mmHg 88%
    20:00 +7°C° 0.6 mm 3 m/s 726 mmHg 87%
    21:00 +5°C° 0.6 mm 3 m/s 726 mmHg 87%
    22:00 +5°C° 0.6 mm 3 m/s 725 mmHg 87%
    23:00 +5°C° 0.6 mm 3 m/s 725 mmHg 87%

    23 Novembre, Samedi

    Heure Température Précipitation Vent Pression Humidité
    00:00 +5°C° 0.6 mm 3 m/s 724 mmHg 87%
    01:00 +5°C° 0.3 mm 3 m/s 724 mmHg 87%
    02:00 +6°C° 0.3 mm 2 m/s 724 mmHg 88%
    03:00 +5°C° 0.3 mm 2 m/s 723 mmHg 88%
    04:00 +5°C° 1 mm 2 m/s 723 mmHg 89%
    05:00 +5°C° 1 mm 2 m/s 723 mmHg 90%
    06:00 +5°C° 1 mm 2 m/s 723 mmHg 91%
    07:00 +6°C° 1.8 mm 2 m/s 723 mmHg 93%
    08:00 +5°C° 1.8 mm 3 m/s 724 mmHg 94%
    09:00 +5°C° 1.8 mm 3 m/s 724 mmHg 95%
    10:00 +6°C° 0.3 mm 2 m/s 724 mmHg 95%
    11:00 +6°C° 0.3 mm 2 m/s 724 mmHg 95%
    12:00 +7°C° 0.3 mm 1 m/s 724 mmHg 95%
    13:00 +8°C° 0.1 mm 1 m/s 724 mmHg 95%
    14:00 +8°C° 0.1 mm 1 m/s 725 mmHg 94%
    15:00 +8°C° 0.1 mm 1 m/s 725 mmHg 94%
    16:00 +8°C° 0 mm 1 m/s 726 mmHg 95%
    17:00 +7°C° 0 mm 1 m/s 727 mmHg 96%
    18:00 +7°C° 0 mm 1 m/s 728 mmHg 97%
    19:00 +6°C° 0 mm 1 m/s 728 mmHg 96%
    20:00 +6°C° 0 mm 1 m/s 729 mmHg 96%
    21:00 +6°C° 0 mm 1 m/s 730 mmHg 96%
    22:00 +6°C° 0 mm 1 m/s 731 mmHg 96%
    23:00 +6°C° 0 mm 1 m/s 731 mmHg 96%

    24 Novembre, Dimanche

    Heure Température Précipitation Vent Pression Humidité
    00:00 +6°C° 0 mm 1 m/s 732 mmHg 97%
    01:00 +6°C° 0 mm 1 m/s 732 mmHg 96%
    02:00 +6°C° 0 mm 1 m/s 733 mmHg 96%
    03:00 +6°C° 0 mm 1 m/s 733 mmHg 96%
    04:00 +6°C° 0 mm 1 m/s 734 mmHg 96%
    05:00 +6°C° 0 mm 1 m/s 735 mmHg 96%
    06:00 +6°C° 0 mm 1 m/s 735 mmHg 96%
    07:00 +7°C° 0 mm 1 m/s 736 mmHg 95%
    08:00 +7°C° 0 mm 1 m/s 736 mmHg 94%
    09:00 +8°C° 0 mm 1 m/s 737 mmHg 92%
    10:00 +8°C° 0 mm 1 m/s 737 mmHg 90%
    11:00 +9°C° 0 mm 1 m/s 737 mmHg 87%
    12:00 +9°C° 0 mm 1 m/s 737 mmHg 84%
    13:00 +9°C° 0 mm 1 m/s 737 mmHg 85%
    14:00 +9°C° 0 mm 1 m/s 738 mmHg 85%
    15:00 +9°C° 0 mm 1 m/s 738 mmHg 86%
    16:00 +9°C° 0 mm 1 m/s 738 mmHg 88%
    17:00 +8°C° 0 mm 1 m/s 738 mmHg 90%
    18:00 +7°C° 0 mm 1 m/s 738 mmHg 92%
    19:00 +7°C° 0 mm 1 m/s 738 mmHg 93%
    20:00 +6°C° 0 mm 1 m/s 738 mmHg 93%
    21:00 +6°C° 0 mm 1 m/s 737 mmHg 94%
    22:00 +5°C° 0 mm 1 m/s 737 mmHg 95%
    23:00 +4°C° 0 mm 2 m/s 737 mmHg 95%
    Voir plus